Location: �clusier
(49.9361°N, 2.7869°E)
Time: 06:45:01
(UTC+00:00)

Cosmos 2333 Rocket - Pass Details

Date: 16 June 2021
Orbit: 841 x 861 km, 70.8° (Epoch: 31 July)

Event Time Altitude Azimuth Distance (km) Brightness Sun altitude
Exits shadow 22:50:56 - 220° (SW) 2,882 4.6 -15.5°
Reaches altitude 10° 22:51:59 10° 222° (SW) 2,490 4.3 -15.6°
Maximum altitude 22:57:39 63° 303° (WNW) 956 2.7 -15.8°
Drops below altitude 10° 23:03:21 10° 25° (NNE) 2,493 5.5 -16.0°
Sets 23:05:50 0° 29° (NNE) 3,430 6.2 -16.0°
